Ft Lauderdale, FL

4:13 AM EDT on April 20, 2018 (GMT -0400)
Fort Lauderdale-Hollywood International

Weather History for KFLL - December, 2013

Change the Weather History Date:

Sunday, December 1, 2013

  Actual Average Record
Temperature  
Mean Temperature 69 °F 73 °F  
Max Temperature 76 °F 80 °F 87 °F (1934)
Min Temperature 62 °F 67 °F 39 °F (1956)
Degree Days  
Heating Degree Days 0 0  
Month to date heating degree days 0 0  
Since 1 July heating degree days 4 2  
Cooling Degree Days 4 9  
Month to date cooling degree days 4 9  
Year to date cooling degree days 4356 4522  
Growing Degree Days 18 (Base 50)    
Moisture  
Dew Point 66 °F    
Average Humidity 84    
Maximum Humidity 100    
Minimum Humidity 68    
Precipitation  
Precipitation 0.70 in 0.07 in 5.43 in (1925)
Month to date precipitation 0.70 0.07  
Year to date precipitation 75.96 59.79  
Snow  
Snow 0.00 in - - ()
Month to date snowfall 0.0  
Since 1 July snowfall 0.0  
Snow Depth 0.00 in    
Sea Level Pressure  
Sea Level Pressure 30.02 in    
Wind  
Wind Speed 5 mph (NW)    
Max Wind Speed 14 mph    
Max Gust Speed 16 mph    
Visibility 8 miles    
Events Rain    
T = Trace of Precipitation, MM = Missing Value Source: NWS Daily Summary

Daily Weather History Graph

Daily Weather History Graph

Search for Another Location

Airport or City:

Astronomy

Dec. 01, 2013 Rise Set
Actual Time 6:50 AM EST 5:28 PM EST
Civil Twilight 6:25 AM EST 5:53 PM EST
Nautical Twilight 5:57 AM EST 6:21 PM EST
Astronomical Twilight 5:29 AM EST 6:49 PM EST
Moon 5:14 AM EST (12/1) 4:31 PM EST (12/1)
Length of Visible Light 11h 27m
Length of Day
10h 37m
Waning Crescent, 2% of the Moon is Illuminated
Dec 1
Waning Crescent
Dec 2
New
Dec 9
First Quarter
Dec 17
Full
Dec 25
Last Quarter

Hourly Weather History & Observations

Time (EST) Temp. Dew Point Humidity Pressure Visibility Wind Dir Wind Speed Gust Speed Precip Events Conditions
12:53 AM 68.0 °F 62.1 °F 81% 30.09 in 10.0 mi NNW 3.5 mph - N/A   Partly Cloudy
1:53 AM 64.0 °F 62.1 °F 93% 30.09 in 10.0 mi NNW 5.8 mph - N/A   Partly Cloudy
2:53 AM 63.0 °F 61.0 °F 93% 30.06 in 10.0 mi Calm Calm - N/A   Partly Cloudy
3:53 AM 63.0 °F 61.0 °F 93% 30.04 in 10.0 mi NW 5.8 mph - N/A   Partly Cloudy
4:53 AM 62.1 °F 61.0 °F 96% 30.05 in 10.0 mi NW 5.8 mph - N/A   Partly Cloudy
5:53 AM 62.1 °F 61.0 °F 96% 30.06 in 10.0 mi NW 3.5 mph - N/A   Scattered Clouds
6:53 AM 62.1 °F 61.0 °F 96% 30.07 in 10.0 mi NW 4.6 mph - N/A   Partly Cloudy
7:53 AM 63.0 °F 62.1 °F 97% 30.09 in 10.0 mi NW 5.8 mph - N/A   Scattered Clouds
8:53 AM 68.0 °F 64.9 °F 90% 30.10 in 10.0 mi WNW 3.5 mph - N/A   Scattered Clouds
9:53 AM 75.9 °F 68.0 °F 76% 30.10 in 10.0 mi East 12.7 mph - N/A   Scattered Clouds
10:53 AM 73.0 °F 68.0 °F 84% 30.09 in 10.0 mi ESE 11.5 mph - N/A   Mostly Cloudy
11:53 AM 70.0 °F 69.1 °F 97% 30.07 in 2.5 mi SE 4.6 mph - 0.03 in Rain Rain
11:57 AM 69.8 °F 68.0 °F 94% 30.07 in 4.0 mi South 4.6 mph - 0.01 in Rain Light Rain
12:53 PM 70.0 °F 69.1 °F 97% 30.04 in 6.0 mi WNW 5.8 mph - 0.06 in Rain Rain
1:53 PM 69.1 °F 69.1 °F 100% 30.02 in 5.0 mi NW 6.9 mph - N/A Rain Rain
2:40 PM 69.8 °F 69.8 °F 100% 29.99 in 10.0 mi West 5.8 mph - 0.01 in   Mostly Cloudy
2:53 PM 70.0 °F 69.1 °F 97% 29.99 in 10.0 mi WNW 4.6 mph - 0.01 in   Mostly Cloudy
3:53 PM 72.0 °F 69.1 °F 91% 29.98 in 10.0 mi NW 3.5 mph - N/A   Mostly Cloudy
4:11 PM 71.6 °F 69.8 °F 94% 29.98 in 10.0 mi Calm Calm - N/A   Mostly Cloudy
4:53 PM 71.1 °F 70.0 °F 96% 29.99 in 2.0 mi NNE 5.8 mph - 0.05 in Rain Light Rain
5:28 PM 69.8 °F 69.8 °F 100% 29.99 in 3.0 mi NW 4.6 mph - 0.21 in Rain Light Rain
5:38 PM 69.8 °F 69.8 °F 100% 29.99 in 4.0 mi NW 5.8 mph - 0.23 in Rain Light Rain
5:53 PM 69.1 °F 69.1 °F 100% 29.99 in 5.0 mi NNW 6.9 mph - 0.24 in Rain Light Rain
6:53 PM 68.0 °F 68.0 °F 100% 30.00 in 5.0 mi NNW 4.6 mph - 0.07 in Rain Light Rain
7:07 PM 68.0 °F 68.0 °F 100% 30.00 in 4.0 mi North 6.9 mph - 0.03 in Rain Light Rain
7:53 PM 66.9 °F 66.9 °F 100% 30.01 in 4.0 mi North 6.9 mph - 0.09 in Rain Light Rain
8:23 PM 66.2 °F 66.2 °F 100% 30.01 in 6.0 mi North 5.8 mph - 0.01 in Rain Light Rain
8:53 PM 66.9 °F 66.9 °F 100% 30.00 in 6.0 mi NNE 4.6 mph - 0.01 in Rain Light Rain
9:53 PM 66.9 °F 66.9 °F 100% 29.99 in 10.0 mi North 3.5 mph - 0.00 in   Overcast
10:53 PM 66.9 °F 66.9 °F 100% 29.97 in 10.0 mi WNW 3.5 mph - N/A   Mostly Cloudy
11:36 PM 66.2 °F 66.2 °F 100% 29.96 in 10.0 mi WNW 4.6 mph - N/A   Overcast
11:53 PM 66.9 °F 66.9 °F 100% 29.95 in 10.0 mi WNW 4.6 mph - N/A   Overcast
11:57 PM 66.2 °F 66.2 °F 100% 29.95 in 10.0 mi West 4.6 mph - N/A   Overcast